$Date,$Time,DM0201B,DM0203B,DM0205B,DM0207B,DM0209B
09/07/98,00:00:01,33,340,-28,75,971
09/07/98,00:05:01,47,340,-28,67,971
09/07/98,00:10:01,37,340,-28,68,971
09/07/98,00:15:01,37,344,-28,70,971
09/07/98,00:20:01,28,339,-28,70,971
09/07/98,00:25:01,7,21,-28,68,971
09/07/98,00:30:01,8,22,-28,66,971
09/07/98,00:35:01,15,44,-28,70,971
09/07/98,00:40:01,16,50,-28,78,971
09/07/98,00:45:01,27,64,-28,84,971
09/07/98,00:50:01,22,94,-28,88,971
09/07/98,00:55:01,56,108,-28,88,971
09/07/98,01:00:01,33,108,-28,88,971
09/07/98,01:05:01,19,95,-28,85,971
09/07/98,01:10:01,5,80,-27,93,971
09/07/98,01:15:01,44,140,-28,86,973
09/07/98,01:20:01,31,151,-28,82,973
09/07/98,01:25:01,14,151,-28,78,973
09/07/98,01:30:01,14,192,-28,72,973
09/07/98,01:35:01,5,220,-28,70,973
09/07/98,01:40:01,8,249,-27,66,973
09/07/98,01:45:01,8,167,-27,60,973
09/07/98,01:50:01,0,148,-27,64,973
09/07/98,01:55:01,0,148,-28,56,973
09/07/98,02:00:01,14,142,-27,52,973
09/07/98,02:05:01,30,132,-27,52,973
09/07/98,02:10:01,40,138,-27,44,973
09/07/98,02:15:01,29,138,-27,44,973
09/07/98,02:20:01,29,128,-27,44,973
09/07/98,02:25:01,18,105,-27,54,973
09/07/98,02:30:01,53,104,-26,60,973
09/07/98,02:35:01,54,121,-27,42,973
09/07/98,02:40:01,51,105,-27,34,973
09/07/98,02:45:01,62,108,-27,30,973
09/07/98,02:50:01,75,129,-27,30,973
09/07/98,02:55:01,53,108,-27,30,973
09/07/98,03:00:01,60,117,-27,28,973
09/07/98,03:05:01,33,97,-27,28,975
09/07/98,03:10:01,67,134,-27,24,975
09/07/98,03:15:01,59,130,-28,22,975
09/07/98,03:20:01,61,110,-28,22,975
09/07/98,03:25:01,28,102,-28,22,975
09/07/98,03:30:01,27,104,-28,22,975
09/07/98,03:35:01,29,147,-28,22,975
09/07/98,03:40:01,29,145,-28,22,975
09/07/98,03:45:01,0,132,-28,22,975
09/07/98,03:50:01,0,132,-28,22,975
09/07/98,03:55:01,14,153,-28,22,975
09/07/98,04:00:01,0,90,-28,24,975
09/07/98,04:05:01,1,129,-27,24,975
09/07/98,04:10:01,19,129,-27,22,975
09/07/98,04:15:01,4,99,-27,22,975
09/07/98,04:20:01,4,27,-27,22,975
09/07/98,04:25:01,35,145,-28,20,975
09/07/98,04:30:01,55,122,-28,16,975
09/07/98,04:35:01,14,87,-27,16,975
09/07/98,04:40:01,38,96,-27,12,977
09/07/98,04:45:01,25,100,-28,10,977
09/07/98,04:50:01,74,117,-28,10,977
09/07/98,04:55:01,54,87,-28,8,977
09/07/98,05:00:01,30,22,-28,6,977
09/07/98,05:05:01,59,53,-28,6,977
09/07/98,05:10:01,25,346,-28,6,977
09/07/98,05:15:01,30,356,-28,4,977
09/07/98,05:20:01,51,1,-29,4,977
09/07/98,05:25:01,49,13,-29,4,977
09/07/98,05:30:01,63,42,-29,2,977
09/07/98,05:35:01,69,44,-28,2,977
09/07/98,05:40:01,61,26,-29,2,977
09/07/98,05:45:01,52,64,-29,0,977
09/07/98,05:50:01,60,52,-29,0,977
09/07/98,05:55:01,90,73,-28,0,977
09/07/98,06:00:01,52,49,-28,0,977
09/07/98,06:05:01,28,82,-29,0,977
09/07/98,06:10:01,46,82,-28,0,977
09/07/98,06:15:01,38,80,-28,0,977
09/07/98,06:20:01,38,80,-28,0,977
09/07/98,06:25:01,38,68,-28,0,979
09/07/98,06:30:01,28,58,-28,0,979
09/07/98,06:35:01,38,68,-29,0,979
09/07/98,06:40:01,45,68,-28,0,979
09/07/98,06:45:01,33,57,-28,0,979
09/07/98,06:50:01,37,57,-28,0,979
09/07/98,06:55:01,20,21,-28,0,979
09/07/98,07:00:01,11,17,-28,0,979
09/07/98,07:05:01,22,356,-29,0,979
09/07/98,07:10:01,23,13,-29,0,979
09/07/98,07:15:01,12,26,-29,0,979
09/07/98,07:20:01,7,22,-29,0,979
09/07/98,07:25:01,19,38,-29,0,979
09/07/98,07:30:01,1,38,-29,0,979
09/07/98,07:35:01,8,73,-29,0,979
09/07/98,07:40:01,20,313,-29,0,979
09/07/98,07:45:01,18,302,-29,0,979
09/07/98,07:50:01,8,302,-29,0,979
09/07/98,07:55:01,8,302,-29,0,979
09/07/98,08:00:01,8,302,-29,0,979
09/07/98,08:05:01,8,302,-29,0,979
09/07/98,08:10:01,8,302,-29,0,979
09/07/98,08:15:01,8,302,-29,0,981
09/07/98,08:20:01,8,280,-29,0,981
09/07/98,08:25:01,8,242,-29,0,981
09/07/98,08:30:01,8,242,-30,0,981
09/07/98,08:35:01,8,242,-30,0,981
09/07/98,08:40:01,8,242,-30,0,981
09/07/98,08:45:01,8,242,-29,0,981
09/07/98,08:50:01,8,242,-30,0,981
09/07/98,08:55:01,8,242,-30,0,981
09/07/98,09:00:01,8,242,-31,0,981
09/07/98,09:05:01,8,242,-31,0,981
09/07/98,09:10:01,8,242,-31,0,981
09/07/98,09:15:01,8,242,-31,0,981
09/07/98,09:20:01,8,317,-31,0,981
09/07/98,09:25:01,8,317,-31,0,981
09/07/98,09:30:01,8,317,-30,0,981
09/07/98,09:35:01,8,317,-30,0,981
09/07/98,09:40:01,8,317,-30,0,981
09/07/98,09:45:01,8,317,-30,0,981
09/07/98,09:50:01,8,317,-30,0,981
09/07/98,09:55:01,8,317,-30,0,981
09/07/98,10:00:01,8,317,-30,0,981
09/07/98,10:05:01,8,317,-30,0,981
09/07/98,10:10:01,8,269,-30,0,981
09/07/98,10:15:01,8,269,-30,0,981
09/07/98,10:20:01,8,269,-30,0,981
09/07/98,10:25:01,8,269,-30,0,981
09/07/98,10:30:01,8,269,-30,0,981
09/07/98,10:35:01,8,269,-30,0,981
09/07/98,10:40:01,8,269,-30,0,981
09/07/98,10:45:01,8,269,-30,0,981
09/07/98,10:50:01,26,224,-30,0,981
09/07/98,10:55:01,13,224,-30,0,981
09/07/98,11:00:01,24,213,-30,0,981
09/07/98,11:05:01,14,203,-30,0,981
09/07/98,11:10:01,14,203,-30,0,981
09/07/98,11:15:01,4,203,-30,0,981
09/07/98,11:20:01,15,203,-30,0,981
09/07/98,11:25:01,15,203,-30,0,981
09/07/98,11:30:01,15,203,-30,0,981
09/07/98,11:35:01,15,203,-30,0,983
09/07/98,11:40:01,25,193,-30,0,983
09/07/98,11:45:01,15,193,-30,0,983
09/07/98,11:50:01,12,161,-30,0,983
09/07/98,11:55:01,22,171,-30,0,983
09/07/98,12:00:01,33,181,-30,0,983
09/07/98,12:05:01,43,181,-30,0,983
09/07/98,12:10:01,43,181,-30,0,983
09/07/98,12:15:01,32,191,-30,0,983
09/07/98,12:20:01,22,191,-30,0,983
09/07/98,12:25:01,21,191,-30,0,983
09/07/98,12:30:01,10,191,-30,0,983
09/07/98,12:35:01,20,191,-30,0,983
09/07/98,12:40:01,20,191,-30,0,983
09/07/98,12:45:01,20,191,-30,0,983
09/07/98,12:50:01,10,191,-30,0,983
09/07/98,12:55:01,10,191,-29,0,983
09/07/98,13:00:01,10,191,-29,0,983
09/07/98,13:05:01,10,191,-29,0,983
09/07/98,13:10:01,10,191,-29,0,983
09/07/98,13:15:01,20,191,-29,0,983
09/07/98,13:20:01,22,191,-29,0,983
09/07/98,13:25:01,37,191,-29,0,983
09/07/98,13:30:01,48,191,-29,0,983
09/07/98,13:35:01,36,191,-29,0,983
09/07/98,13:40:01,46,191,-29,0,983
09/07/98,13:45:01,36,191,-29,0,983
09/07/98,13:50:01,46,191,-29,0,983
09/07/98,13:55:01,24,191,-29,0,983
09/07/98,14:00:01,34,191,-29,0,983
09/07/98,14:05:01,34,191,-29,0,983
09/07/98,14:10:01,34,191,-29,0,983
09/07/98,14:15:01,34,191,-29,0,983
09/07/98,14:20:01,34,191,-29,0,983
09/07/98,14:25:01,34,191,-29,0,983
09/07/98,14:30:01,34,191,-29,0,983
09/07/98,14:35:01,34,191,-29,0,983
09/07/98,14:40:01,34,191,-29,0,983
09/07/98,14:45:01,34,191,-29,0,983
09/07/98,14:50:01,34,191,-29,0,983
09/07/98,14:55:01,34,191,-29,0,983
09/07/98,15:00:01,34,191,-29,0,983
09/07/98,15:05:01,34,191,-29,0,983
09/07/98,15:10:01,34,191,-29,0,983
09/07/98,15:15:01,34,191,-29,0,983
09/07/98,15:20:01,34,191,-29,0,983
09/07/98,15:25:01,34,191,-29,0,983
09/07/98,15:30:01,34,191,-29,0,983
09/07/98,15:35:01,34,191,-29,0,983
09/07/98,15:40:01,34,191,-29,0,983
09/07/98,15:45:01,34,191,-29,0,983
09/07/98,15:50:01,34,191,-29,0,983
09/07/98,15:55:01,24,191,-29,0,983
09/07/98,16:00:01,24,191,-29,0,983
09/07/98,16:05:01,24,191,-29,0,983
09/07/98,16:10:01,13,191,-28,0,983
09/07/98,16:15:01,13,191,-28,0,983
09/07/98,16:20:01,13,191,-28,0,983
09/07/98,16:25:01,13,191,-28,0,983
09/07/98,16:30:01,13,191,-28,0,983
09/07/98,16:35:01,3,191,-28,0,983
09/07/98,16:40:01,3,191,-28,0,983
09/07/98,16:45:01,3,191,-28,0,983
09/07/98,16:50:01,3,191,-28,0,983
09/07/98,16:55:01,3,191,-28,0,983
09/07/98,17:00:01,3,191,-28,0,983
09/07/98,17:05:01,3,191,-28,0,983
09/07/98,17:10:01,3,191,-28,0,983
09/07/98,17:15:01,3,191,-28,0,983
09/07/98,17:20:01,3,191,-28,0,983
09/07/98,17:25:01,3,191,-28,0,983
09/07/98,17:30:01,3,191,-28,0,983
09/07/98,17:35:01,3,191,-28,0,983
09/07/98,17:40:01,3,191,-28,0,983
09/07/98,17:45:01,3,191,-28,0,983
09/07/98,17:50:01,3,191,-28,0,983
09/07/98,17:55:01,3,191,-28,0,983
09/07/98,18:00:01,3,191,-28,0,983
09/07/98,18:05:01,3,191,-28,0,983
09/07/98,18:10:01,3,191,-28,0,983
09/07/98,18:15:01,3,191,-28,0,983
09/07/98,18:20:01,3,191,-28,0,985
09/07/98,18:25:01,3,191,-28,0,985
09/07/98,18:30:01,3,191,-28,0,985
09/07/98,18:35:01,3,191,-28,0,985
09/07/98,18:40:01,3,191,-28,0,985
09/07/98,18:45:01,3,191,-28,0,985
09/07/98,18:50:01,3,191,-28,0,985
09/07/98,18:55:01,3,191,-28,0,985
09/07/98,19:00:01,3,191,-28,0,985
09/07/98,19:05:01,3,191,-28,0,985
09/07/98,19:10:01,3,191,-28,0,985
09/07/98,19:15:01,3,191,-28,0,985
09/07/98,19:20:01,3,191,-28,0,985
09/07/98,19:25:01,3,191,-28,0,985
09/07/98,19:30:01,3,191,-28,0,985
09/07/98,19:35:01,15,191,-27,0,985
09/07/98,19:40:01,15,191,-28,0,985
09/07/98,19:45:01,5,191,-27,0,985
09/07/98,19:50:01,15,191,-27,0,985
09/07/98,19:55:01,15,191,-27,0,985
09/07/98,20:00:01,15,191,-27,0,985
09/07/98,20:05:01,15,191,-27,0,985
09/07/98,20:10:01,15,191,-27,0,985
09/07/98,20:15:01,5,191,-27,0,985
09/07/98,20:20:01,5,191,-27,0,985
09/07/98,20:25:01,5,191,-27,0,985
09/07/98,20:30:01,5,191,-27,0,985
09/07/98,20:35:01,5,191,-27,0,985
09/07/98,20:40:01,5,191,-27,0,985
09/07/98,20:45:01,5,191,-27,2,985
09/07/98,20:50:01,5,191,-28,2,985
09/07/98,20:55:01,5,191,-28,2,985
09/07/98,21:00:01,5,191,-28,2,985
09/07/98,21:05:01,5,191,-28,4,985
09/07/98,21:10:01,5,191,-28,4,985
09/07/98,21:15:01,5,191,-28,6,985
09/07/98,21:20:01,5,191,-28,6,985
09/07/98,21:25:01,5,191,-28,8,985
09/07/98,21:30:01,5,191,-28,8,985
09/07/98,21:35:01,5,191,-28,10,985
09/07/98,21:40:01,5,191,-28,12,985
09/07/98,21:45:01,5,191,-28,14,985
09/07/98,21:50:01,5,191,-28,14,985
09/07/98,21:55:01,5,191,-28,16,985
09/07/98,22:00:01,5,191,-28,18,985
09/07/98,22:05:01,5,191,-28,20,985
09/07/98,22:10:01,16,191,-28,22,985
09/07/98,22:15:01,16,191,-28,24,985
09/07/98,22:20:01,6,191,-28,24,985
09/07/98,22:25:01,6,191,-28,26,985
09/07/98,22:30:01,6,191,-28,28,985
09/07/98,22:35:01,6,191,-28,30,985
09/07/98,22:40:01,6,191,-28,30,985
09/07/98,22:45:01,6,191,-28,32,985
09/07/98,22:50:01,6,191,-28,34,985
09/07/98,22:55:01,6,191,-28,36,985
09/07/98,23:00:01,6,191,-28,38,985
09/07/98,23:05:01,6,191,-28,38,985
09/07/98,23:10:01,6,191,-28,38,985
09/07/98,23:15:01,6,191,-28,38,985
09/07/98,23:20:01,6,191,-28,38,985
09/07/98,23:25:01,6,191,-27,38,985
09/07/98,23:30:01,6,191,-28,38,985
09/07/98,23:35:01,6,191,-28,38,985
09/07/98,23:40:01,6,191,-28,38,985
09/07/98,23:45:01,6,191,-27,38,985
09/07/98,23:50:01,6,191,-27,38,985
09/07/98,23:55:01,6,191,-27,38,985
09/08/98,00:00:01,6,150,-27,38,985
